User: anonymous   Login
Location: *
(48.8667°N, 2.3331°E)
Time: 18:01:43
(UTC+00:00)
Language:

SPOT 5 - Orbit

View from above orbital plane
View from above orbital plane
View from above satellite
View from above satellite

Ground track
Ground track

The orbit data is extracted from the following two-line orbital elements,

1 27421U 02021A   20185.19077317 -.00000087  00000-0 -78666-5 0  9997
2 27421  98.2701 255.7528 0135439 156.6910 204.0510 14.52041269947031
Epoch (UTC): 03 July 2020 04:34:42
Eccentricity: 0.0135439
inclination: 98.2701°
perigee height: 623 km
apogee height: 815 km
right ascension of ascending node: 255.7528°
argument of perigee: 156.6910°
revolutions per day: 14.52041269
mean anomaly at epoch: 204.0510°
orbit number at epoch: 94703

The dashed part of the orbit path shows where the satellite is in the earth's shadow,  

DLR